カタログに戻る

METEOR 3-1 DEB

LostPO
NORAD 45519·DEBRIS·🇷🇺 Russia

打ち上げ Oct 24, 1985 から Plesetsk Cosmodrome

Loading…

次のパス (今後24時間)

TLE

古いSource: Space-Track

元期: Mar 8, 2025, 12:15 UTC

1 45519U 85100E   25067.51107780  .00001087  00000-0  26003-2 0  9996
2 45519  82.5472 353.0004 0023416  42.7615 317.5326 13.21776846493738

AllMySatでMETEOR 3-1 DEBをリアルタイム追跡

Download on the App Store